This is the latest recevied weather packets stored in our database for station/object WD0REW. If no packets are shown the sender has not sent any weather packets the latest 10 day(s).
| Time | Temp. | Humidity | Pressure | Rain* | Wind** | Luminosity | Snow |
|---|---|---|---|---|---|---|---|
| 1777669125 | 17.22° C | 33% | 1018.1 hPa | 0 mm | - | 54 W/m² | - |
| 1777668822 | 17.22° C | 32% | 1018.2 hPa | 0 mm | - | 50 W/m² | - |
| 1777668519 | 17.22° C | 33% | 1018.2 hPa | 0 mm | - | 49 W/m² | - |
| 1777668215 | 17.22° C | 35% | 1018.3 hPa | 0 mm | - | 61 W/m² | - |
| 1777667911 | 17.22° C | 30% | 1018.5 hPa | 0 mm | - | 81 W/m² | - |
| 1777667609 | 17.78° C | 31% | 1018.3 hPa | 0 mm | - | 93 W/m² | - |
| 1777667306 | 17.78° C | 32% | 1018.7 hPa | 0 mm | - | 150 W/m² | - |
| 1777667003 | 17.22° C | 34% | 1018.8 hPa | 0 mm | - | 586 W/m² | - |
| 1777666700 | 17.22° C | 30% | 1018.9 hPa | 0 mm | - | 114 W/m² | - |
| 1777666397 | 17.78° C | 29% | 1019 hPa | 0 mm | - | 459 W/m² | - |
| 1777666093 | 18.33° C | 30% | 1019.1 hPa | 0 mm | - | 638 W/m² | - |
| 1777665790 | 18.33° C | 33% | 1019.3 hPa | 0 mm | - | 673 W/m² | - |
| 1777665488 | 18.33° C | 30% | 1019.1 hPa | 0 mm | - | 690 W/m² | - |
| 1777665183 | 17.78° C | 31% | 1019.3 hPa | 0 mm | - | 673 W/m² | - |
| 1777664880 | 18.33° C | 33% | 1019.4 hPa | 0 mm | - | 477 W/m² | - |
| 1777664576 | 17.78° C | 34% | 1019.5 hPa | 0 mm | - | 271 W/m² | - |
| 1777664272 | 18.33° C | 31% | 1019.6 hPa | 0 mm | - | 742 W/m² | - |
| 1777663971 | 18.89° C | 28% | 1019.8 hPa | 0 mm | - | 690 W/m² | - |
| 1777663668 | 18.33° C | 32% | 1019.6 hPa | 0 mm | - | 705 W/m² | - |
| 1777663364 | 18.33° C | 33% | 1019.6 hPa | 0 mm | - | 755 W/m² | - |
| 1777663062 | 18.33° C | 30% | 1019.6 hPa | 0 mm | - | 689 W/m² | - |
| 1777662759 | 17.78° C | 29% | 1019.6 hPa | 0 mm | - | 768 W/m² | - |
| 1777662456 | 17.78° C | 35% | 1019.8 hPa | 0 mm | - | 730 W/m² | - |
| 1777662151 | 18.33° C | 30% | 1019.8 hPa | 0 mm | - | 795 W/m² | - |
| 1777661847 | 17.78° C | 32% | 1019.7 hPa | 0 mm | - | 826 W/m² | - |
* Rain latest hour (hover to see other rain measurements)
** Current wind speed in m/s (hover to see current wind gust speed)